Weather in Tampere

Finland     61°29′53″N   23°47′13″E
temp.,
°C
wind,
m/s
gust,
m/s
humid.,
%
clouds,
%
prec.,
mm/h
press.,
hPa
HPBL,
m
8 march, mon
mon823:00−8n4118892 0.0 1009687
02:00−9n399296 0.0 1012493
05:00−9n3890100 0.0 1013413
08:00−11n389288 0.0 1015292
11:00−7nnw258117 0.0 1016470
14:00−4nw357748 0.1 1017904
17:00−5nnw248297 0.1 1017180
20:00−7sse118997 0.1 101721
9 march, tue
tue923:00−7s2295100 0.1 101678
02:00−6sse3795100 1.2 1015431
05:00−6se4895100 2.0 1013479
08:00−8ese51094100 5.8 1014500
11:00−9e61291100 1.9 1015640
14:00−9e61189100 2.6 1018664
17:00−11ene61186100 0.1 1019595
20:00−15ene4118371 0.1 1023426
10 march, wed
wed1023:00−17ene49910 0.0 1025318
02:00−19ene38940 0.0 1027251
05:00−20e38940 0.0 1027238
08:00−19e310900 0.0 1028266
11:00−13ese48770 0.0 1027422
14:00−9se49710 0.0 1027710
17:00−10ese39770 0.0 1025696
20:00−14ese412860 0.0 1025389
11 march, thu
thu1123:00−14ese412890 0.0 1024406
02:00−14ese413890 0.0 1022453
05:00−13se4129012 0.0 1019486
08:00−12se5129254 0.0 1017523
11:00−8se51088100 0.1 1015646
14:00−5se51086100 0.2 1012773
17:00−5se61184100 0.1 1009775
20:00−6se6149199 0.1 1006690
12 march, fri
fri1223:00−3se61485100 0.1 1004970
02:00−5se71588100 0.1 1001835
05:00−5se71489100 0.1 998929
08:00−6ese71487100 0.3 996904
11:00−5ese71285100 0.1 995897
14:00−4ese61184100 0.3 995906
17:00−5ese61187100 0.1 994885
20:00−7ese51192100 0.4 994731